Location: Azul
(36.7830°S, 59.8500°W)
Time: 17:08:49
(UTC-03:00)

Hubble Space Telescope - Pass Details

Date: 02 December 2023
Orbit: 516 x 519 km, 28.5° (Epoch: 27 February)

Event Time Altitude Azimuth Distance (km) Brightness Sun altitude
Exits shadow 04:37:11 14° 320° (NW) 1,525 2.4 -10.3°
Maximum altitude 04:39:40 24° 6° (N) 1,130 2.1 -10.0°
Drops below altitude 10° 04:42:58 10° 60° (ENE) 1,764 3.7 -9.4°
Sets 04:45:31 0° 74° (ENE) 2,652 4.9 -9.0°
